Location: Hylvaty SDH
(49.9612°N, 16.4057°E)
Time: 01:16:09
(UTC+01:00)

Transit 4A - Pass Details

Date: 12 August 2020
Orbit: 864 x 981 km, 66.8° (Epoch: 15 January)

Event Time Altitude Azimuth Distance (km) Brightness Sun altitude
Rises 11:19:01 0° 243° (WSW) 3,501 10.8 49.3°
Reaches altitude 10° 11:21:38 10° 251° (WSW) 2,581 10.2 49.6°
Maximum altitude 11:27:15 40° 320° (NW) 1,340 8.8 50.1°
Drops below altitude 10° 11:33:03 10° 30° (NNE) 2,669 10.2 50.7°
Sets 11:35:50 0° 38° (NE) 3,635 10.9 50.9°
